date:2026-05-30T18:22:21+00:00
validtle:1
satid:41471
launchyear:2016
epoch:26150.10573889
epochday:150
tleage:0
tleclassification:U
active:1
name:JCSAT-2B
meananomly:7.7511
meanmotion:1.0027
rightascension:0.0000
declination:0.0000
semimajoraxis:42164.846019904
altitudeatperigee:35781
altitudeatapogee:35792
inclination:0.0171
eccentricity:0.0001249
argumentofperigree:124.304
nickname:JCSAT-2B
idesg:16028A  
cosparid:2016-028A
altkm:35780.942889151
velkms:3.0750955469431
velkmh:11070
onumepoch:3694
onumnow:3704.69
otype:3
otypedesc:Geostationary Orbit
status:3
timestamp:2026-05-30T02:32:16+00:00
nowjuliandate:2461191.2655282
nowepochdate:26150.7655208333
TLE:
JCSAT-2B
1 41471U 16028A   26150.10573889 -.00000153  00000+0  00000+0 0  9997
2 41471   0.0171 307.6417 0001249 124.3040   7.7511  1.00271423 36949